Location: Mascot Post Office (historical)
(40.2645°N, 99.5462°W)
Time: 17:08:50
(UTC+00:00)

SL-27 R/B - Pass Details

Date: 14 July 2020
Orbit: 420 x 470 km, 74.7° (Epoch: 04 August)

Event Time Altitude Azimuth Distance (km) Brightness Sun altitude
Exits shadow 10:08:37 16° 199° (SSW) 1,260 4.1 -12.0°
Maximum altitude 10:11:19 85° 289° (WNW) 459 2.4 -11.6°
Drops below altitude 10° 10:14:47 10° 17° (NNE) 1,577 6.1 -11.1°
Sets 10:16:51 0° 18° (NNE) 2,444 7.2 -10.8°
